DMSP 5D-2 F11 DEB, 28308

Orbit data source: Space-Track

DMSP 5D-2 F11 DEB, 28308 is space debris in SSO originally from a launch on Thu, 28 Nov 1991 UTC launched from the Air Force Western Test Range (AFWTR). Debris objects in space refer to the collection of defunct objects orbiting the Earth. Examples of debris include non-operational satellites, rocket bodies, and fragments generated from explosions, collisions, or faulty payload assembly.

Loading next visibility...
Identifier
28308, 1991-082V
Orbit
SSO
Country
Flag of USUS
Related business
Manufacturer
Unknown
Mission
Spacecraft
Bus & Motor
Unknown
Mass
Unknown
Launch date (UTC)
1991-11-28 (34 years ago)
Launch vehicle
Unknown
Launch site
Air Force Western Test Range (AFWTR)
Object type
Payload
Rocket body
Debris
Shape & HBR
Unknown shape, 0.1 m
Radar Cross Section
Small (<0.1 m²)

Expand to show TLE details & history
Last TLE update: 22 hours ago

TLE from 22 hours ago
0 DMSP 5D-2 F11 DEB
1 28308U 91082V   26134.54167618  .00000733  00000-0  29971-3 0  9999
2 28308  98.5618 164.9939 0015752 120.7952  34.1888 14.30110417144370
Epoch: 2026-05-14T13:00Z
TLE epoch observation values (Epoch: 2026-05-14T13:00:00.821Z)
Latitude
24.64603°
Longitude
-78.35562°
Altitude
785.02 km
Speed
7.468 km/s
True Right ascension
23h 15m 44s
True Declination
24° 30' 59"
Sunlit
Object was in daylight at epoch
Visualization orbit readout
Latitude
Unknown
Longitude
Unknown
Altitude
Unknown
Speed
Unknown
Apparent Right ascension
Unknown
Apparent Declination
Unknown
Sunlit
N/A
Visualization observer readout
Local Sidereal Time
19:57:08
Azimuth
Unknown
Elevation
Unknown
Doppler factor
Unknown
Orbital elements
Apogee altitude
799.789 km
Perigee altitude
777.211 km
Semi-major axis
7,166.637 km
Eccentricity
0.00158
Inclination
98.5618°
RAAN
164.9939°
Arg. of periapsis
120.7952°
True anomaly
34.29039°
Mean anomaly
34.1888°
Eccentric anomaly
34.23958°
Mean motion
3.57742 °/min
Orbital period
100.63 mins
BSTAR
0.00029971
Loading maneuver chart data...
Computing Atmospheric mass density...

Documentation

Showing up to 5 results
|